Location: ??????
(38.1303°N, 24.0039°E)
Time: 19:43:18
(UTC+00:00)

DELTA 2 R/B (1) - Pass Details

Date: 20 October 2021
Orbit: 790 x 802 km, 39.6° (Epoch: 01 December)

Event Time Altitude Azimuth Distance (km) Brightness Sun altitude
Exits shadow 02:08:06 33° 152° (SSE) 1,294 4.7 -30.0°
Drops below altitude 10° 02:11:21 10° 131° (SE) 2,342 6.4 -29.4°
Sets 02:13:53 0° 127° (SE) 3,269 7.3 -28.9°
